Location: Mahannah Oil Field
(37.4664°N, 96.6003°W)
Time: 15:41:06
(UTC+00:00)

Vanguard 2 Rocket - Pass Details

Date: 24 January 2021
Orbit: 554 x 3325 km, 32.9° (Epoch: 06 March)

Event Time Altitude Azimuth Distance (km) Brightness Sun altitude
Rises 19:32:23 0° 220° (SW) 7,219 12.4 32.1°
Reaches altitude 10° 19:38:06 10° 214° (SW) 6,003 12.4 31.8°
Maximum altitude 19:53:24 37° 155° (SSE) 3,266 10.7 30.9°
Drops below altitude 10° 20:03:25 10° 93° (E) 3,977 10.1 30.1°
Sets 20:06:19 0° 85° (E) 4,631 10.3 29.9°
